Location: Chateh
(58.6667°N, 118.6000°W)
Time: 10:43:31
(UTC+00:00)

PCSat - Pass Details

Date: 12 December 2023
Orbit: 784 x 791 km, 67.0° (Epoch: 01 March)

Event Time Altitude Azimuth Distance (km) Brightness Sun altitude
Exits shadow 13:57:55 30° 309° (NW) 1,390 10.3 -18.3°
Maximum altitude 13:59:36 37° 347° (NNW) 1,211 10.3 -18.1°
Drops below altitude 10° 14:04:39 10° 55° (NE) 2,366 12.6 -17.5°
Sets 14:07:15 0° 63° (ENE) 3,297 13.5 -17.1°
